Location: Asheville, NC
(35.6000°N, 82.5500°W)
Time: 00:57:03
(UTC-04:00)

Vanguard 2 Rocket - Pass Details

Date: 16 December 2017
Orbit: 553 x 3328 km, 32.9° (Epoch: 23 June)

Event Time Altitude Azimuth Distance (km) Brightness Sun altitude
Rises 00:25:46 0° 283° (WNW) 6,472 11.3 -77.7°
Enters shadow 00:28:04 - 281° (W) 6,027 11.1 -77.7°
Exits shadow 01:08:55 - 133° (SE) 6,205 11.1 -74.6°
Sets 01:10:25 0° 132° (SE) 6,492 11.3 -74.4°
